Date String (YYYY-MM-DD hh:mm:ss) UTC,Instrument flags,absolute air pressure of the measurement (hPa),sample flow rate (lpm),inlet stack bypass flow (lpm),air temperature of the measurement (°C),ambient temperature measured by the external sensor (°C),aerosol sample conditioner tube jacket temperature (°C),OPC LED temperature (°C),internal box temperature (°C),relative humidity of the measurement (%),span deviation,mass concentration of particles derived from Lorenz-Mie calculation of OPC scattering (μg/m³),mass concentration of particles derived from Lorenz-Mie calculation of OPC scattering (μg/m³),mass concentration of particles derived from Lorenz-Mie calculation of OPC scattering (μg/m³)
DateTimeUTC,F1_M11,P_M11,Q1_M11,Q2_M11,T1_M11,T2_M11,T3_M11,T4_M11,T5_M11,U1_M11,ZSPAN_M11,X0_M11,X2_M11,X1_M11
2024-01-29 19:00:00,SystemResetWarning,0836.9,5.00,000.00,025.8,025.1,000.0,033.9,027.2,13.3,0000.0,0005.96,0001.00,0000.59
2024-01-29 19:01:00,SystemResetWarning,0836.9,5.00,000.00,025.8,025.1,000.0,033.9,027.2,13.3,0000.0,0005.83,0000.97,0000.58
2024-01-29 19:02:00,SystemResetWarning,0836.9,5.00,000.00,025.8,025.2,000.0,033.9,027.2,13.2,0000.0,0005.00,0000.93,0000.57
2024-01-29 19:03:00,SystemResetWarning,0836.9,4.99,000.00,025.8,025.2,000.0,034.0,027.3,13.3,0000.0,0004.25,0000.91,0000.57
2024-01-29 19:04:00,SystemResetWarning,0837.0,5.00,000.00,025.8,025.2,000.0,034.0,027.3,13.0,0000.0,0004.05,0000.90,0000.57
2024-01-29 19:05:00,SystemResetWarning,0837.0,4.99,000.00,025.8,025.2,000.0,034.0,027.3,12.9,0000.0,0004.17,0000.90,0000.59
2024-01-29 19:06:00,SystemResetWarning,0836.9,5.00,000.00,025.8,025.2,000.0,034.0,027.3,12.9,0000.0,0004.42,0000.89,0000.59
2024-01-29 19:07:00,SystemResetWarning,0836.9,5.00,000.00,025.9,025.2,000.0,034.0,027.4,12.8,0000.0,0004.56,0000.89,0000.59
2024-01-29 19:08:00,SystemResetWarning,0836.9,5.01,000.00,025.9,025.2,000.0,034.0,027.4,12.6,0000.0,0004.62,0000.90,0000.60
2024-01-29 19:09:00,SystemResetWarning,0836.9,5.01,000.00,025.9,025.2,000.0,034.0,027.4,12.7,0000.0,0005.60,0000.90,0000.63
2024-01-29 19:10:00,SystemResetWarning,0836.9,5.00,000.00,025.9,025.3,000.0,034.1,027.4,13.0,0000.0,0005.77,0000.92,0000.63
2024-01-29 19:11:00,SystemResetWarning,0836.8,5.00,000.00,025.9,025.3,000.0,034.1,027.4,13.1,0000.0,0004.92,0000.93,0000.65
2024-01-29 19:12:00,SystemResetWarning,0836.8,4.99,000.00,025.9,025.3,000.0,034.1,027.4,13.3,0000.0,0004.92,0000.97,0000.66
2024-01-29 19:13:00,SystemResetWarning,0836.8,4.99,000.00,026.0,025.3,000.0,034.1,027.4,13.4,0000.0,0004.45,0000.99,0000.67
2024-01-29 19:14:00,SystemResetWarning,0836.8,5.00,000.00,026.0,025.3,000.0,034.1,027.5,13.1,0000.0,0003.86,0001.00,0000.67
2024-01-29 19:15:00,SystemResetWarning,0836.8,5.00,000.00,026.0,025.4,000.0,034.1,027.5,12.9,0000.0,0004.12,0001.02,0000.67
2024-01-29 19:16:00,SystemResetWarning,0836.8,5.00,000.00,026.0,025.4,000.0,034.2,027.5,12.9,0000.0,0004.38,0001.02,0000.66
2024-01-29 19:17:00,SystemResetWarning,0836.8,5.00,000.00,026.0,025.4,000.0,034.2,027.5,13.1,0000.0,0004.19,0001.01,0000.65
2024-01-29 19:18:00,SystemResetWarning,0836.8,5.00,000.00,026.0,025.4,000.0,034.2,027.5,13.2,0000.0,0004.06,0001.04,0000.65
2024-01-29 19:19:00,SystemResetWarning,0836.8,5.00,000.00,026.1,025.4,000.0,034.2,027.6,13.2,0000.0,0004.02,0001.02,0000.63
2024-01-29 19:20:00,SystemResetWarning,0836.8,5.00,000.00,026.1,025.5,000.0,034.2,027.6,13.3,0000.0,0003.32,0000.99,0000.60
2024-01-29 19:21:00,SystemResetWarning,0836.8,5.00,000.00,026.1,025.5,000.0,034.2,027.6,13.2,0000.0,0002.74,0000.98,0000.58
2024-01-29 19:22:00,SystemResetWarning,0836.7,5.01,000.00,026.1,025.5,000.0,034.2,027.6,13.1,0000.0,0002.58,0000.94,0000.57
2024-01-29 19:23:00,SystemResetWarning,0836.7,5.00,000.00,026.1,025.5,000.0,034.3,027.6,12.9,0000.0,0002.82,0000.91,0000.55
2024-01-29 19:24:00,SystemResetWarning,0836.6,4.98,000.00,026.2,025.5,000.0,034.3,027.6,12.7,0000.0,0002.76,0000.89,0000.54
2024-01-29 19:25:00,SystemResetWarning,0836.7,5.00,000.00,026.2,025.5,000.0,034.3,027.7,12.9,0000.0,0002.65,0000.87,0000.54
2024-01-29 19:26:00,SystemResetWarning,0836.6,5.01,000.00,026.2,025.6,000.0,034.3,027.7,12.7,0000.0,0002.45,0000.86,0000.54
2024-01-29 19:27:00,SystemResetWarning,0836.6,4.99,000.00,026.2,025.6,000.0,034.3,027.7,12.6,0000.0,0002.79,0000.85,0000.54
2024-01-29 19:28:00,SystemResetWarning,0836.6,4.99,000.00,026.2,025.6,000.0,034.4,027.7,12.6,0000.0,0002.78,0000.84,0000.54
2024-01-29 19:29:00,SystemResetWarning,0836.6,5.00,000.00,026.2,025.6,000.0,034.4,027.7,12.6,0000.0,0002.64,0000.81,0000.54
2024-01-29 19:30:00,SystemResetWarning,0836.6,5.00,000.00,026.3,025.6,000.0,034.4,027.8,12.6,0000.0,0002.58,0000.81,0000.54
2024-01-29 19:31:00,SystemResetWarning,0836.6,5.00,000.00,026.3,025.7,000.0,034.4,027.8,12.9,0000.0,0002.51,0000.80,0000.54
2024-01-29 19:32:00,SystemResetWarning,0836.6,4.99,000.00,026.3,025.7,000.0,034.4,027.8,12.7,0000.0,0002.31,0000.74,0000.53
2024-01-29 19:33:00,SystemResetWarning,0836.7,5.00,000.00,026.3,025.7,000.0,034.4,027.8,12.4,0000.0,0002.24,0000.71,0000.51
2024-01-29 19:34:00,SystemResetWarning,0836.7,5.00,000.00,026.3,025.7,000.0,034.5,027.8,12.5,0000.0,0001.93,0000.68,0000.49
2024-01-29 19:35:00,SystemResetWarning,0836.6,5.00,000.00,026.4,025.7,000.0,034.5,027.8,12.5,0000.0,0001.88,0000.67,0000.48
2024-01-29 19:36:00,SystemResetWarning,0836.6,5.00,000.00,026.4,025.7,000.0,034.5,027.8,12.7,0000.0,0001.82,0000.63,0000.46
2024-01-29 19:37:00,SystemResetWarning,0836.7,5.00,000.00,026.4,025.8,000.0,034.5,027.9,12.8,0000.0,0001.72,0000.61,0000.45
2024-01-29 19:38:00,SystemResetWarning,0836.6,5.00,000.00,026.4,025.8,000.0,034.5,027.9,12.7,0000.0,0001.00,0000.63,0000.45
2024-01-29 19:39:00,SystemResetWarning,0836.6,5.00,000.00,026.4,025.8,000.0,034.5,027.9,12.6,0000.0,0001.02,0000.64,0000.45
2024-01-29 19:40:00,SystemResetWarning,0836.6,5.00,000.00,026.5,025.8,000.0,034.6,027.9,12.3,0000.0,0001.01,0000.64,0000.44
2024-01-29 19:41:00,SystemResetWarning,0836.6,5.00,000.00,026.5,025.8,000.0,034.6,027.9,12.2,0000.0,0000.98,0000.62,0000.43
2024-01-29 19:42:00,SystemResetWarning,0836.6,5.00,000.00,026.5,025.9,000.0,034.6,028.0,12.3,0000.0,0001.05,0000.65,0000.45
2024-01-29 19:43:00,SystemResetWarning,0836.6,5.00,000.00,026.5,025.9,000.0,034.6,028.0,12.3,0000.0,0001.44,0000.73,0000.47
2024-01-29 19:44:00,SystemResetWarning,0836.5,5.00,000.00,026.5,025.9,000.0,034.6,028.0,12.2,0000.0,0001.92,0000.85,0000.50
2024-01-29 19:45:00,SystemResetWarning,0836.5,5.00,000.00,026.5,025.9,000.0,034.7,028.0,12.4,0000.0,0003.49,0000.92,0000.53
2024-01-29 19:46:00,SystemResetWarning,0836.5,5.01,000.00,026.6,025.9,000.0,034.7,028.0,12.2,0000.0,0003.56,0000.94,0000.55
2024-01-29 19:47:00,SystemResetWarning,0836.5,5.01,000.00,026.6,026.0,000.0,034.7,028.1,12.3,0000.0,0003.72,0001.03,0000.58
2024-01-29 19:48:00,SystemResetWarning,0836.5,5.00,000.00,026.6,026.0,000.0,034.7,028.1,12.2,0000.0,0003.75,0001.06,0000.59
2024-01-29 19:49:00,SystemResetWarning,0836.5,4.99,000.00,026.6,026.0,000.0,034.7,028.1,12.4,0000.0,0003.71,0001.06,0000.59
2024-01-29 19:50:00,SystemResetWarning,0836.5,4.99,000.00,026.6,026.0,000.0,034.7,028.1,12.1,0000.0,0003.66,0001.03,0000.59
2024-01-29 19:51:00,SystemResetWarning,0836.5,5.00,000.00,026.6,026.0,000.0,034.8,028.1,12.2,0000.0,0003.64,0001.02,0000.59
2024-01-29 19:52:00,SystemResetWarning,0836.5,5.00,000.00,026.7,026.0,000.0,034.8,028.2,12.3,0000.0,0003.58,0001.00,0000.58
2024-01-29 19:53:00,SystemResetWarning,0836.5,5.00,000.00,026.7,026.0,000.0,034.8,028.2,12.1,0000.0,0003.57,0000.99,0000.57
2024-01-29 19:54:00,SystemResetWarning,0836.4,5.00,000.00,026.7,026.1,000.0,034.8,028.2,12.1,0000.0,0003.31,0000.97,0000.56
2024-01-29 19:55:00,SystemResetWarning,0836.5,5.00,000.00,026.7,026.1,000.0,034.8,028.2,12.2,0000.0,0002.80,0000.86,0000.53
2024-01-29 19:56:00,SystemResetWarning,0836.4,5.00,000.00,026.7,026.1,000.0,034.9,028.2,12.1,0000.0,0001.30,0000.80,0000.50
2024-01-29 19:57:00,SystemResetWarning,0836.4,4.99,000.00,026.8,025.9,000.0,034.9,028.3,12.2,0000.0,0001.19,0000.75,0000.47
2024-01-29 19:58:00,SystemResetWarning,0836.4,5.00,000.00,026.7,024.0,000.0,034.9,028.1,12.2,0000.0,0001.74,0000.69,0000.43
2024-01-29 19:59:00,SystemResetWarning,0836.4,5.00,000.00,026.6,022.7,000.0,034.8,027.9,12.2,0000.0,0001.84,0000.66,0000.41
